Time,TemperatureF,DewpointF,PressureIn,WindDirection,WindDirectionDegrees,WindSpeedMPH,WindSpeedGustMPH,Humidity,HourlyPrecipIn,Conditions,Clouds,dailyrainin,SoftwareType,DateUTC
2013-10-07 00:04:00,49.8,45.2,29.91,NW,304,2.0,7.0,84,0.00,,,0.00,Wunderground v.1.15,2013-10-07 05:04:00,
2013-10-07 00:10:00,49.7,45.1,29.91,NW,317,3.0,5.0,84,0.00,,,0.00,Wunderground v.1.15,2013-10-07 05:10:00,
2013-10-07 00:16:00,49.7,45.1,29.92,NW,315,3.0,5.0,84,0.00,,,0.00,Wunderground v.1.15,2013-10-07 05:16:00,
2013-10-07 00:38:00,49.6,45.0,29.92,NW,315,2.0,8.0,84,0.00,,,0.00,Wunderground v.1.15,2013-10-07 05:38:00,
2013-10-07 00:44:00,49.6,45.0,29.92,NW,317,3.0,3.0,84,0.00,,,0.00,Wunderground v.1.15,2013-10-07 05:44:00,
2013-10-07 00:50:00,49.6,45.0,29.92,NW,306,2.0,3.0,84,0.00,,,0.00,Wunderground v.1.15,2013-10-07 05:50:00,
2013-10-07 00:56:00,49.6,45.0,29.92,NW,311,2.0,8.0,84,0.00,,,0.00,Wunderground v.1.15,2013-10-07 05:56:00,
2013-10-07 01:02:00,49.7,45.1,29.92,NW,319,3.0,3.0,84,0.00,,,0.00,Wunderground v.1.15,2013-10-07 06:02:00,
2013-10-07 01:08:00,49.6,45.0,29.92,NW,317,1.0,3.0,84,0.00,,,0.00,Wunderground v.1.15,2013-10-07 06:08:00,
2013-10-07 01:14:00,49.6,45.0,29.92,NW,317,1.0,1.0,84,0.00,,,0.00,Wunderground v.1.15,2013-10-07 06:14:00,
2013-10-07 01:20:00,49.6,45.0,29.92,NW,317,1.0,1.0,84,0.00,,,0.00,Wunderground v.1.15,2013-10-07 06:20:00,
2013-10-07 01:26:00,49.6,45.0,29.93,NW,317,1.0,2.0,84,0.00,,,0.00,Wunderground v.1.15,2013-10-07 06:26:00,
2013-10-07 01:32:00,49.6,45.0,29.93,NW,315,1.0,3.0,84,0.00,,,0.00,Wunderground v.1.15,2013-10-07 06:32:00,
2013-10-07 01:38:00,49.6,45.0,29.93,NW,313,1.0,5.0,84,0.00,,,0.00,Wunderground v.1.15,2013-10-07 06:38:00,
2013-10-07 01:44:00,49.5,44.9,29.93,West,281,1.0,6.0,84,0.00,,,0.00,Wunderground v.1.15,2013-10-07 06:44:00,
2013-10-07 01:50:00,49.5,44.9,29.93,NW,306,2.0,2.0,84,0.00,,,0.00,Wunderground v.1.15,2013-10-07 06:50:00,
2013-10-07 01:56:00,49.6,45.0,29.93,NW,306,1.0,11.0,84,0.00,,,0.00,Wunderground v.1.15,2013-10-07 06:56:00,
2013-10-07 02:02:00,49.6,45.0,29.93,NW,304,1.0,11.0,84,0.00,,,0.00,Wunderground v.1.15,2013-10-07 07:02:00,
2013-10-07 02:08:00,49.5,44.9,29.94,NW,305,1.0,11.0,84,0.00,,,0.00,Wunderground v.1.15,2013-10-07 07:08:00,
2013-10-07 02:14:00,49.5,44.9,29.94,NW,305,1.0,11.0,84,0.00,,,0.00,Wunderground v.1.15,2013-10-07 07:14:00,
2013-10-07 02:20:00,49.5,44.9,29.94,NW,305,0.0,11.0,84,0.00,,,0.00,Wunderground v.1.15,2013-10-07 07:20:00,
2013-10-07 02:26:00,49.5,45.2,29.94,NW,304,0.0,11.0,85,0.00,,,0.00,Wunderground v.1.15,2013-10-07 07:26:00,
2013-10-07 02:32:00,49.6,45.3,29.95,NW,305,0.0,11.0,85,0.00,,,0.00,Wunderground v.1.15,2013-10-07 07:32:00,
2013-10-07 02:38:00,49.5,45.2,29.94,NW,304,0.0,11.0,85,0.00,,,0.00,Wunderground v.1.15,2013-10-07 07:38:00,
2013-10-07 02:44:00,49.5,45.2,29.94,NW,305,0.0,11.0,85,0.00,,,0.00,Wunderground v.1.15,2013-10-07 07:44:00,
2013-10-07 02:50:00,49.5,45.2,29.94,NW,304,1.0,1.0,85,0.00,,,0.00,Wunderground v.1.15,2013-10-07 07:50:00,
2013-10-07 02:56:00,49.5,45.2,29.95,NW,305,1.0,11.0,85,0.00,,,0.00,Wunderground v.1.15,2013-10-07 07:56:00,
2013-10-07 03:02:00,49.5,45.2,29.95,NW,305,1.0,11.0,85,0.00,,,0.00,Wunderground v.1.15,2013-10-07 08:02:00,
2013-10-07 03:08:00,49.5,45.2,29.95,NW,304,0.0,11.0,85,0.00,,,0.00,Wunderground v.1.15,2013-10-07 08:08:00,
2013-10-07 03:14:00,49.5,45.2,29.94,WNW,303,1.0,11.0,85,0.00,,,0.00,Wunderground v.1.15,2013-10-07 08:14:00,
2013-10-07 03:20:00,49.5,45.2,29.94,WNW,303,0.0,11.0,85,0.00,,,0.00,Wunderground v.1.15,2013-10-07 08:20:00,
2013-10-07 03:26:00,49.5,45.2,29.94,NW,304,1.0,11.0,85,0.00,,,0.00,Wunderground v.1.15,2013-10-07 08:26:00,
2013-10-07 03:32:00,49.5,45.2,29.94,NW,304,1.0,2.0,85,0.00,,,0.00,Wunderground v.1.15,2013-10-07 08:32:00,
2013-10-07 03:38:00,49.5,45.2,29.94,NW,304,0.0,11.0,85,0.00,,,0.00,Wunderground v.1.15,2013-10-07 08:38:00,
2013-10-07 03:44:00,49.5,45.2,29.95,WNW,303,0.0,11.0,85,0.00,,,0.00,Wunderground v.1.15,2013-10-07 08:44:00,
2013-10-07 03:50:00,49.5,45.2,29.95,WNW,303,0.0,11.0,85,0.00,,,0.00,Wunderground v.1.15,2013-10-07 08:50:00,
2013-10-07 03:56:00,49.4,45.1,29.95,NW,304,0.0,11.0,85,0.00,,,0.00,Wunderground v.1.15,2013-10-07 08:56:00,
2013-10-07 04:02:00,49.4,45.1,29.95,WNW,303,0.0,2.0,85,0.00,,,0.00,Wunderground v.1.15,2013-10-07 09:02:00,
2013-10-07 04:08:00,49.4,45.1,29.95,WNW,303,0.0,2.0,85,0.00,,,0.00,Wunderground v.1.15,2013-10-07 09:08:00,
2013-10-07 04:14:00,49.4,45.1,29.95,NW,304,1.0,2.0,85,0.00,,,0.00,Wunderground v.1.15,2013-10-07 09:14:00,
2013-10-07 04:20:00,49.4,45.4,29.96,NW,304,1.0,1.0,86,0.00,,,0.00,Wunderground v.1.15,2013-10-07 09:20:00,
2013-10-07 04:26:00,49.4,45.4,29.96,NW,304,0.0,1.0,86,0.00,,,0.00,Wunderground v.1.15,2013-10-07 09:26:00,
2013-10-07 04:32:00,49.4,45.4,29.96,NW,304,0.0,1.0,86,0.00,,,0.00,Wunderground v.1.15,2013-10-07 09:32:00,
2013-10-07 04:38:00,49.4,45.4,29.97,NW,304,1.0,1.0,86,0.00,,,0.00,Wunderground v.1.15,2013-10-07 09:38:00,
2013-10-07 04:44:00,49.4,45.4,29.97,NW,304,1.0,1.0,86,0.00,,,0.00,Wunderground v.1.15,2013-10-07 09:44:00,
2013-10-07 04:50:00,49.4,45.4,29.97,NW,304,0.0,0.0,86,0.00,,,0.00,Wunderground v.1.15,2013-10-07 09:50:00,
2013-10-07 04:56:00,49.4,45.4,29.97,WNW,303,0.0,1.0,86,0.00,,,0.00,Wunderground v.1.15,2013-10-07 09:56:00,
2013-10-07 05:02:00,49.4,45.4,29.97,WNW,303,1.0,4.0,86,0.00,,,0.00,Wunderground v.1.15,2013-10-07 10:02:00,
2013-10-07 05:08:00,49.4,45.4,29.97,WNW,303,0.0,4.0,86,0.00,,,0.00,Wunderground v.1.15,2013-10-07 10:08:00,
2013-10-07 05:14:00,49.4,45.4,29.97,WNW,303,0.0,4.0,86,0.00,,,0.00,Wunderground v.1.15,2013-10-07 10:14:00,
2013-10-07 05:20:00,49.4,45.4,29.97,WNW,303,0.0,4.0,86,0.00,,,0.00,Wunderground v.1.15,2013-10-07 10:20:00,
2013-10-07 05:26:00,49.4,45.4,29.97,WNW,303,0.0,4.0,86,0.00,,,0.00,Wunderground v.1.15,2013-10-07 10:26:00,
2013-10-07 05:32:00,49.4,45.4,29.98,WNW,303,0.0,4.0,86,0.00,,,0.00,Wunderground v.1.15,2013-10-07 10:32:00,
2013-10-07 05:38:00,49.4,45.4,29.98,WNW,303,0.0,4.0,86,0.00,,,0.00,Wunderground v.1.15,2013-10-07 10:38:00,
2013-10-07 05:44:00,49.4,45.4,29.98,WNW,303,0.0,4.0,86,0.00,,,0.00,Wunderground v.1.15,2013-10-07 10:44:00,
2013-10-07 05:50:00,49.4,45.4,29.98,WNW,303,0.0,4.0,86,0.00,,,0.00,Wunderground v.1.15,2013-10-07 10:50:00,
2013-10-07 05:56:00,49.4,45.4,29.98,WNW,303,0.0,4.0,86,0.00,,,0.00,Wunderground v.1.15,2013-10-07 10:56:00,
2013-10-07 06:02:00,49.3,45.3,29.99,WNW,303,0.0,0.0,86,0.00,,,0.00,Wunderground v.1.15,2013-10-07 11:02:00,
2013-10-07 06:08:00,49.2,45.2,29.99,WNW,303,0.0,0.0,86,0.00,,,0.00,Wunderground v.1.15,2013-10-07 11:08:00,
2013-10-07 06:14:00,49.1,45.1,30.00,WNW,303,0.0,1.0,86,0.00,,,0.00,Wunderground v.1.15,2013-10-07 11:14:00,
2013-10-07 06:20:00,49.0,45.0,30.00,WNW,303,0.0,0.0,86,0.00,,,0.00,Wunderground v.1.15,2013-10-07 11:20:00,
2013-10-07 06:26:00,49.0,45.0,30.00,WNW,303,0.0,0.0,86,0.00,,,0.00,Wunderground v.1.15,2013-10-07 11:26:00,
2013-10-07 06:32:00,49.0,45.0,30.00,WNW,301,0.0,0.0,86,0.00,,,0.00,Wunderground v.1.15,2013-10-07 11:32:00,
2013-10-07 06:38:00,49.0,45.3,30.01,WNW,300,0.0,0.0,87,0.00,,,0.00,Wunderground v.1.15,2013-10-07 11:38:00,
2013-10-07 06:44:00,48.9,44.9,30.01,WNW,301,0.0,1.0,86,0.00,,,0.00,Wunderground v.1.15,2013-10-07 11:44:00,
2013-10-07 06:50:00,48.9,44.9,30.01,WNW,301,0.0,0.0,86,0.00,,,0.00,Wunderground v.1.15,2013-10-07 11:50:00,
2013-10-07 06:56:00,48.9,45.2,30.02,WNW,302,0.0,1.0,87,0.00,,,0.00,Wunderground v.1.15,2013-10-07 11:56:00,
2013-10-07 07:02:00,48.9,45.2,30.02,WNW,302,0.0,0.0,87,0.00,,,0.00,Wunderground v.1.15,2013-10-07 12:02:00,
2013-10-07 07:08:00,48.8,45.1,30.02,WNW,300,1.0,3.0,87,0.00,,,0.00,Wunderground v.1.15,2013-10-07 12:08:00,
2013-10-07 07:14:00,48.7,45.0,30.02,WNW,302,1.0,1.0,87,0.00,,,0.00,Wunderground v.1.15,2013-10-07 12:14:00,
2013-10-07 07:20:00,48.5,44.8,30.03,WNW,300,0.0,0.0,87,0.00,,,0.00,Wunderground v.1.15,2013-10-07 12:20:00,
2013-10-07 07:26:00,48.2,44.5,30.03,WNW,301,0.0,1.0,87,0.00,,,0.00,Wunderground v.1.15,2013-10-07 12:26:00,
2013-10-07 07:32:00,48.0,44.0,30.03,WNW,301,0.0,0.0,86,0.00,,,0.00,Wunderground v.1.15,2013-10-07 12:32:00,
2013-10-07 07:38:00,47.8,43.8,30.03,WNW,301,0.0,0.0,86,0.00,,,0.00,Wunderground v.1.15,2013-10-07 12:38:00,
2013-10-07 07:44:00,47.6,43.9,30.03,WNW,301,0.0,0.0,87,0.00,,,0.00,Wunderground v.1.15,2013-10-07 12:44:00,
2013-10-07 07:50:00,47.5,43.8,30.04,WNW,300,0.0,0.0,87,0.00,,,0.00,Wunderground v.1.15,2013-10-07 12:50:00,
2013-10-07 07:56:00,47.4,43.7,30.04,WNW,300,0.0,0.0,87,0.00,,,0.00,Wunderground v.1.15,2013-10-07 12:56:00,
2013-10-07 08:02:00,47.4,43.7,30.04,WNW,301,0.0,0.0,87,0.00,,,0.00,Wunderground v.1.15,2013-10-07 13:02:00,
2013-10-07 08:08:00,47.4,43.7,30.04,WNW,300,0.0,0.0,87,0.00,,,0.00,Wunderground v.1.15,2013-10-07 13:08:00,
2013-10-07 08:14:00,47.4,43.7,30.04,WNW,301,0.0,0.0,87,0.00,,,0.00,Wunderground v.1.15,2013-10-07 13:14:00,
2013-10-07 08:20:00,47.4,43.7,30.05,WNW,300,0.0,0.0,87,0.00,,,0.00,Wunderground v.1.15,2013-10-07 13:20:00,
2013-10-07 08:26:00,47.5,43.8,30.05,WNW,300,0.0,1.0,87,0.00,,,0.00,Wunderground v.1.15,2013-10-07 13:26:00,
2013-10-07 08:32:00,47.7,44.3,30.05,WNW,301,0.0,0.0,88,0.00,,,0.00,Wunderground v.1.15,2013-10-07 13:32:00,
2013-10-07 08:38:00,47.9,44.5,30.06,WNW,300,0.0,5.0,88,0.00,,,0.00,Wunderground v.1.15,2013-10-07 13:38:00,
2013-10-07 08:44:00,48.1,44.7,30.06,WNW,300,0.0,3.0,88,0.00,,,0.00,Wunderground v.1.15,2013-10-07 13:44:00,
2013-10-07 08:50:00,48.3,44.9,30.06,WNW,298,1.0,1.0,88,0.00,,,0.00,Wunderground v.1.15,2013-10-07 13:50:00,
2013-10-07 08:56:00,48.6,45.2,30.07,WNW,298,1.0,3.0,88,0.00,,,0.00,Wunderground v.1.15,2013-10-07 13:56:00,
2013-10-07 09:02:00,48.8,45.4,30.07,WNW,301,1.0,4.0,88,0.00,,,0.00,Wunderground v.1.15,2013-10-07 14:02:00,
2013-10-07 09:24:00,50.0,46.6,30.07,WNW,301,1.0,2.0,88,0.00,,,0.00,Wunderground v.1.15,2013-10-07 14:24:00,
2013-10-07 09:30:00,50.3,46.9,30.08,WNW,300,1.0,1.0,88,0.00,,,0.00,Wunderground v.1.15,2013-10-07 14:30:00,
2013-10-07 09:36:00,50.6,46.9,30.08,WNW,301,1.0,1.0,87,0.00,,,0.00,Wunderground v.1.15,2013-10-07 14:36:00,
2013-10-07 09:42:00,50.9,47.5,30.08,WNW,300,1.0,1.0,88,0.00,,,0.00,Wunderground v.1.15,2013-10-07 14:42:00,
2013-10-07 09:48:00,51.2,47.5,30.08,WNW,300,1.0,2.0,87,0.00,,,0.00,Wunderground v.1.15,2013-10-07 14:48:00,
2013-10-07 09:54:00,51.7,48.3,30.08,WNW,300,1.0,1.0,88,0.00,,,0.00,Wunderground v.1.15,2013-10-07 14:54:00,
2013-10-07 10:00:00,52.1,48.3,30.08,SSW,192,1.0,1.0,87,0.00,,,0.00,Wunderground v.1.15,2013-10-07 15:00:00,
2013-10-07 10:06:00,52.5,48.7,30.08,SSW,195,1.0,1.0,87,0.00,,,0.00,Wunderground v.1.15,2013-10-07 15:06:00,
2013-10-07 10:12:00,52.8,49.0,30.08,SSW,196,1.0,1.0,87,0.00,,,0.00,Wunderground v.1.15,2013-10-07 15:12:00,
2013-10-07 10:18:00,53.2,49.4,30.09,SSW,200,1.0,3.0,87,0.00,,,0.00,Wunderground v.1.15,2013-10-07 15:18:00,
2013-10-07 10:24:00,53.6,49.8,30.09,SSW,200,0.0,1.0,87,0.00,,,0.00,Wunderground v.1.15,2013-10-07 15:24:00,
2013-10-07 10:30:00,53.9,50.1,30.09,WSW,244,2.0,2.0,87,0.00,,,0.00,Wunderground v.1.15,2013-10-07 15:30:00,
2013-10-07 10:36:00,54.3,50.2,30.09,WSW,245,1.0,3.0,86,0.00,,,0.00,Wunderground v.1.15,2013-10-07 15:36:00,
2013-10-07 10:42:00,54.7,50.9,30.09,WSW,246,1.0,1.0,87,0.00,,,0.00,Wunderground v.1.15,2013-10-07 15:42:00,
2013-10-07 10:48:00,55.2,51.1,30.09,West,275,1.0,5.0,86,0.00,,,0.00,Wunderground v.1.15,2013-10-07 15:48:00,
2013-10-07 10:54:00,55.6,51.5,30.09,WNW,288,2.0,5.0,86,0.00,,,0.00,Wunderground v.1.15,2013-10-07 15:54:00,
2013-10-07 11:02:00,56.1,52.0,30.10,WNW,302,2.0,3.0,86,0.00,,,0.00,Wunderground v.1.15,2013-10-07 16:02:00,
2013-10-07 11:08:00,56.6,52.5,30.10,WNW,303,2.0,4.0,86,0.00,,,0.00,Wunderground v.1.15,2013-10-07 16:08:00,
2013-10-07 11:14:00,57.1,52.6,30.10,NW,311,1.0,3.0,85,0.00,,,0.00,Wunderground v.1.15,2013-10-07 16:14:00,
2013-10-07 11:20:00,57.3,52.8,30.10,NW,311,1.0,1.0,85,0.00,,,0.00,Wunderground v.1.15,2013-10-07 16:20:00,
2013-10-07 11:26:00,57.7,53.2,30.10,NW,315,2.0,3.0,85,0.00,,,0.00,Wunderground v.1.15,2013-10-07 16:26:00,
2013-10-07 11:32:00,58.0,53.2,30.10,NW,314,1.0,3.0,84,0.00,,,0.00,Wunderground v.1.15,2013-10-07 16:32:00,
2013-10-07 11:38:00,58.4,53.6,30.10,NW,314,1.0,3.0,84,0.00,,,0.00,Wunderground v.1.15,2013-10-07 16:38:00,
2013-10-07 11:44:00,58.6,53.8,30.10,NW,315,1.0,3.0,84,0.00,,,0.00,Wunderground v.1.15,2013-10-07 16:44:00,
2013-10-07 11:50:00,59.0,54.2,30.10,NW,315,1.0,3.0,84,0.00,,,0.00,Wunderground v.1.15,2013-10-07 16:50:00,
2013-10-07 11:56:00,59.4,54.2,30.10,NW,315,2.0,3.0,83,0.00,,,0.00,Wunderground v.1.15,2013-10-07 16:56:00,
2013-10-07 12:02:00,59.8,54.6,30.10,NW,317,1.0,1.0,83,0.00,,,0.00,Wunderground v.1.15,2013-10-07 17:02:00,
2013-10-07 12:08:00,60.1,54.6,30.10,NW,317,1.0,1.0,82,0.00,,,0.00,Wunderground v.1.15,2013-10-07 17:08:00,
2013-10-07 12:14:00,60.4,54.9,30.10,NW,317,0.0,3.0,82,0.00,,,0.00,Wunderground v.1.15,2013-10-07 17:14:00,
2013-10-07 12:20:00,60.8,55.3,30.10,NW,317,1.0,1.0,82,0.00,,,0.00,Wunderground v.1.15,2013-10-07 17:20:00,
2013-10-07 12:26:00,61.1,55.2,30.10,NW,317,2.0,2.0,81,0.00,,,0.00,Wunderground v.1.15,2013-10-07 17:26:00,
2013-10-07 12:32:00,61.4,55.5,30.10,NW,317,1.0,1.0,81,0.00,,,0.00,Wunderground v.1.15,2013-10-07 17:32:00,
2013-10-07 12:38:00,61.8,55.6,30.10,NW,315,0.0,1.0,80,0.00,,,0.00,Wunderground v.1.15,2013-10-07 17:38:00,
2013-10-07 12:44:00,62.1,55.9,30.09,NW,315,0.0,0.0,80,0.00,,,0.00,Wunderground v.1.15,2013-10-07 17:44:00,
2013-10-07 12:50:00,62.4,56.1,30.09,NW,315,0.0,0.0,80,0.00,,,0.00,Wunderground v.1.15,2013-10-07 17:50:00,
2013-10-07 12:56:00,62.6,56.7,30.09,NW,313,0.0,5.0,81,0.00,,,0.00,Wunderground v.1.15,2013-10-07 17:56:00,
2013-10-07 13:02:00,62.8,55.8,30.09,WNW,298,0.0,5.0,78,0.00,,,0.00,Wunderground v.1.15,2013-10-07 18:02:00,
2013-10-07 13:08:00,63.2,56.6,30.08,WNW,292,1.0,5.0,79,0.00,,,0.00,Wunderground v.1.15,2013-10-07 18:08:00,
2013-10-07 13:14:00,63.6,57.0,30.08,WNW,286,0.0,5.0,79,0.00,,,0.00,Wunderground v.1.15,2013-10-07 18:14:00,
2013-10-07 13:20:00,64.0,57.0,30.08,WNW,286,0.0,5.0,78,0.00,,,0.00,Wunderground v.1.15,2013-10-07 18:20:00,
2013-10-07 13:26:00,64.3,57.3,30.08,WNW,286,0.0,5.0,78,0.00,,,0.00,Wunderground v.1.15,2013-10-07 18:26:00,
2013-10-07 13:32:00,64.5,56.8,30.08,West,280,0.0,5.0,76,0.00,,,0.00,Wunderground v.1.15,2013-10-07 18:32:00,
2013-10-07 13:38:00,64.8,57.4,30.08,West,277,1.0,5.0,77,0.00,,,0.00,Wunderground v.1.15,2013-10-07 18:38:00,
2013-10-07 13:44:00,65.1,57.0,30.08,West,276,1.0,5.0,75,0.00,,,0.00,Wunderground v.1.15,2013-10-07 18:44:00,
2013-10-07 13:50:00,65.1,57.3,30.07,NW,307,3.0,3.0,76,0.00,,,0.00,Wunderground v.1.15,2013-10-07 18:50:00,
2013-10-07 13:56:00,65.1,57.0,30.07,NW,313,3.0,5.0,75,0.00,,,0.00,Wunderground v.1.15,2013-10-07 18:56:00,
2013-10-07 14:02:00,65.2,57.1,30.07,NW,313,1.0,2.0,75,0.00,,,0.00,Wunderground v.1.15,2013-10-07 19:02:00,
2013-10-07 14:08:00,65.3,56.8,30.07,NW,311,2.0,5.0,74,0.00,,,0.00,Wunderground v.1.15,2013-10-07 19:08:00,
2013-10-07 14:14:00,65.3,56.8,30.06,NW,311,1.0,5.0,74,0.00,,,0.00,Wunderground v.1.15,2013-10-07 19:14:00,
2013-10-07 14:20:00,65.6,57.1,30.06,NW,312,0.0,5.0,74,0.00,,,0.00,Wunderground v.1.15,2013-10-07 19:20:00,
2013-10-07 14:26:00,65.9,57.0,30.06,NW,309,1.0,5.0,73,0.00,,,0.00,Wunderground v.1.15,2013-10-07 19:26:00,
2013-10-07 14:32:00,66.2,57.3,30.06,NW,309,1.0,5.0,73,0.00,,,0.00,Wunderground v.1.15,2013-10-07 19:32:00,
2013-10-07 14:38:00,66.4,57.5,30.06,NW,309,0.0,5.0,73,0.00,,,0.00,Wunderground v.1.15,2013-10-07 19:38:00,
2013-10-07 14:44:00,66.7,57.4,30.06,NW,309,0.0,5.0,72,0.00,,,0.00,Wunderground v.1.15,2013-10-07 19:44:00,
2013-10-07 14:50:00,66.8,57.5,30.06,NW,310,1.0,1.0,72,0.00,,,0.00,Wunderground v.1.15,2013-10-07 19:50:00,
2013-10-07 14:56:00,66.8,57.1,30.06,WNW,300,1.0,5.0,71,0.00,,,0.00,Wunderground v.1.15,2013-10-07 19:56:00,
2013-10-07 15:02:00,67.1,57.0,30.05,WNW,290,1.0,4.0,70,0.00,,,0.00,Wunderground v.1.15,2013-10-07 20:02:00,
2013-10-07 15:08:00,67.2,57.1,30.05,WNW,295,1.0,4.0,70,0.00,,,0.00,Wunderground v.1.15,2013-10-07 20:08:00,
2013-10-07 15:14:00,67.1,57.0,30.06,WNW,302,2.0,2.0,70,0.00,,,0.00,Wunderground v.1.15,2013-10-07 20:14:00,
2013-10-07 15:20:00,66.8,56.3,30.06,NW,306,2.0,2.0,69,0.00,,,0.00,Wunderground v.1.15,2013-10-07 20:20:00,
2013-10-07 15:26:00,66.7,56.2,30.06,NW,306,1.0,3.0,69,0.00,,,0.00,Wunderground v.1.15,2013-10-07 20:26:00,
2013-10-07 15:32:00,66.7,55.8,30.06,NW,306,0.0,2.0,68,0.00,,,0.00,Wunderground v.1.15,2013-10-07 20:32:00,
2013-10-07 15:38:00,66.8,55.9,30.06,NW,306,0.0,3.0,68,0.00,,,0.00,Wunderground v.1.15,2013-10-07 20:38:00,
2013-10-07 15:44:00,66.8,55.5,30.06,WNW,299,0.0,3.0,67,0.00,,,0.00,Wunderground v.1.15,2013-10-07 20:44:00,
2013-10-07 15:50:00,66.8,55.9,30.06,NW,304,1.0,1.0,68,0.00,,,0.00,Wunderground v.1.15,2013-10-07 20:50:00,
2013-10-07 15:56:00,66.9,56.0,30.05,WNW,303,0.0,5.0,68,0.00,,,0.00,Wunderground v.1.15,2013-10-07 20:56:00,
2013-10-07 16:02:00,67.0,55.7,30.05,WNW,302,0.0,5.0,67,0.00,,,0.00,Wunderground v.1.15,2013-10-07 21:02:00,
2013-10-07 16:08:00,67.0,55.7,30.05,WNW,302,1.0,5.0,67,0.00,,,0.00,Wunderground v.1.15,2013-10-07 21:08:00,
2013-10-07 16:14:00,67.0,55.3,30.05,WNW,303,1.0,5.0,66,0.00,,,0.00,Wunderground v.1.15,2013-10-07 21:14:00,
2013-10-07 16:20:00,67.1,55.4,30.04,WNW,303,1.0,1.0,66,0.00,,,0.00,Wunderground v.1.15,2013-10-07 21:20:00,
2013-10-07 16:26:00,67.2,55.5,30.04,NW,305,1.0,5.0,66,0.00,,,0.00,Wunderground v.1.15,2013-10-07 21:26:00,
2013-10-07 16:32:00,67.3,55.5,30.05,NW,304,1.0,5.0,66,0.00,,,0.00,Wunderground v.1.15,2013-10-07 21:32:00,
2013-10-07 16:38:00,67.5,55.7,30.05,NW,304,0.0,5.0,66,0.00,,,0.00,Wunderground v.1.15,2013-10-07 21:38:00,
2013-10-07 16:44:00,67.5,55.7,30.04,NW,305,0.0,5.0,66,0.00,,,0.00,Wunderground v.1.15,2013-10-07 21:44:00,
2013-10-07 16:50:00,67.4,55.2,30.04,NW,305,0.0,5.0,65,0.00,,,0.00,Wunderground v.1.15,2013-10-07 21:50:00,
2013-10-07 16:56:00,67.2,55.0,30.04,WNW,300,0.0,5.0,65,0.00,,,0.00,Wunderground v.1.15,2013-10-07 21:56:00,
2013-10-07 17:02:00,67.0,54.8,30.04,WNW,300,0.0,5.0,65,0.00,,,0.00,Wunderground v.1.15,2013-10-07 22:02:00,
2013-10-07 17:08:00,66.9,54.7,30.04,WNW,300,0.0,5.0,65,0.00,,,0.00,Wunderground v.1.15,2013-10-07 22:08:00,
2013-10-07 17:14:00,66.8,54.7,30.04,WNW,300,0.0,5.0,65,0.00,,,0.00,Wunderground v.1.15,2013-10-07 22:14:00,
2013-10-07 17:20:00,66.6,54.5,30.04,WNW,300,0.0,5.0,65,0.00,,,0.00,Wunderground v.1.15,2013-10-07 22:20:00,
2013-10-07 17:26:00,66.4,54.3,30.04,WNW,300,0.0,5.0,65,0.00,,,0.00,Wunderground v.1.15,2013-10-07 22:26:00,
2013-10-07 17:32:00,66.2,54.1,30.04,WNW,300,0.0,5.0,65,0.00,,,0.00,Wunderground v.1.15,2013-10-07 22:32:00,
2013-10-07 17:38:00,65.9,53.8,30.05,WNW,300,0.0,5.0,65,0.00,,,0.00,Wunderground v.1.15,2013-10-07 22:38:00,
2013-10-07 17:44:00,65.7,53.6,30.05,WNW,300,0.0,5.0,65,0.00,,,0.00,Wunderground v.1.15,2013-10-07 22:44:00,
2013-10-07 17:50:00,65.5,53.4,30.05,WNW,300,0.0,5.0,65,0.00,,,0.00,Wunderground v.1.15,2013-10-07 22:50:00,
2013-10-07 17:56:00,65.3,53.2,30.05,WNW,300,0.0,5.0,65,0.00,,,0.00,Wunderground v.1.15,2013-10-07 22:56:00,
2013-10-07 18:02:00,65.0,52.9,30.05,WNW,300,0.0,0.0,65,0.00,,,0.00,Wunderground v.1.15,2013-10-07 23:02:00,
2013-10-07 18:08:00,64.7,52.7,30.05,WNW,300,0.0,0.0,65,0.00,,,0.00,Wunderground v.1.15,2013-10-07 23:08:00,
2013-10-07 18:14:00,64.5,52.5,30.05,WNW,300,0.0,0.0,65,0.00,,,0.00,Wunderground v.1.15,2013-10-07 23:14:00,
2013-10-07 18:20:00,64.1,52.1,30.05,WNW,300,0.0,0.0,65,0.00,,,0.00,Wunderground v.1.15,2013-10-07 23:20:00,
2013-10-07 18:26:00,63.7,51.7,30.05,WNW,300,0.0,0.0,65,0.00,,,0.00,Wunderground v.1.15,2013-10-07 23:26:00,
2013-10-07 18:32:00,63.3,51.3,30.05,WNW,300,0.0,0.0,65,0.00,,,0.00,Wunderground v.1.15,2013-10-07 23:32:00,
2013-10-07 18:38:00,62.9,51.0,30.05,WNW,300,0.0,0.0,65,0.00,,,0.00,Wunderground v.1.15,2013-10-07 23:38:00,
2013-10-07 18:44:00,62.4,50.5,30.05,WNW,300,0.0,0.0,65,0.00,,,0.00,Wunderground v.1.15,2013-10-07 23:44:00,
2013-10-07 18:50:00,62.0,50.1,30.05,WNW,300,0.0,0.0,65,0.00,,,0.00,Wunderground v.1.15,2013-10-07 23:50:00,
2013-10-07 18:56:00,61.4,49.9,30.05,WNW,300,0.0,0.0,66,0.00,,,0.00,Wunderground v.1.15,2013-10-07 23:56:00,
2013-10-07 19:02:00,60.9,49.5,30.05,WNW,300,0.0,0.0,66,0.00,,,0.00,Wunderground v.1.15,2013-10-08 00:02:00,
2013-10-07 19:08:00,60.3,48.9,30.05,WNW,300,0.0,0.0,66,0.00,,,0.00,Wunderground v.1.15,2013-10-08 00:08:00,
2013-10-07 19:14:00,59.7,48.3,30.05,WNW,300,0.0,0.0,66,0.00,,,0.00,Wunderground v.1.15,2013-10-08 00:14:00,
2013-10-07 19:20:00,59.2,47.8,30.06,WNW,300,0.0,0.0,66,0.00,,,0.00,Wunderground v.1.15,2013-10-08 00:20:00,
2013-10-07 19:26:00,58.6,47.3,30.06,WNW,300,0.0,0.0,66,0.00,,,0.00,Wunderground v.1.15,2013-10-08 00:26:00,
2013-10-07 19:32:00,58.0,46.7,30.06,WNW,300,0.0,0.0,66,0.00,,,0.00,Wunderground v.1.15,2013-10-08 00:32:00,
2013-10-07 19:38:00,57.5,46.2,30.06,WNW,300,0.0,0.0,66,0.00,,,0.00,Wunderground v.1.15,2013-10-08 00:38:00,
2013-10-07 19:44:00,57.0,46.1,30.06,WNW,300,0.0,0.0,67,0.00,,,0.00,Wunderground v.1.15,2013-10-08 00:44:00,
2013-10-07 19:50:00,56.6,45.8,30.06,WNW,300,0.0,0.0,67,0.00,,,0.00,Wunderground v.1.15,2013-10-08 00:50:00,
2013-10-07 19:56:00,56.2,45.4,30.06,WNW,300,0.0,0.0,67,0.00,,,0.00,Wunderground v.1.15,2013-10-08 00:56:00,
2013-10-07 20:02:00,55.8,45.0,30.06,WNW,300,0.0,0.0,67,0.00,,,0.00,Wunderground v.1.15,2013-10-08 01:02:00,
2013-10-07 20:08:00,55.4,44.6,30.07,WNW,300,0.0,0.0,67,0.00,,,0.00,Wunderground v.1.15,2013-10-08 01:08:00,
2013-10-07 20:14:00,55.1,44.7,30.07,WNW,300,0.0,0.0,68,0.00,,,0.00,Wunderground v.1.15,2013-10-08 01:14:00,
2013-10-07 20:20:00,54.7,44.3,30.07,WNW,300,0.0,0.0,68,0.00,,,0.00,Wunderground v.1.15,2013-10-08 01:20:00,
2013-10-07 20:26:00,54.4,44.1,30.07,WNW,300,0.0,0.0,68,0.00,,,0.00,Wunderground v.1.15,2013-10-08 01:26:00,
2013-10-07 20:32:00,54.1,43.8,30.07,WNW,300,0.0,0.0,68,0.00,,,0.00,Wunderground v.1.15,2013-10-08 01:32:00,
2013-10-07 20:38:00,53.8,43.9,30.08,WNW,300,0.0,0.0,69,0.00,,,0.00,Wunderground v.1.15,2013-10-08 01:38:00,
2013-10-07 20:44:00,53.5,43.6,30.08,WNW,300,0.0,0.0,69,0.00,,,0.00,Wunderground v.1.15,2013-10-08 01:44:00,
2013-10-07 20:50:00,53.3,43.4,30.08,WNW,300,0.0,0.0,69,0.00,,,0.00,Wunderground v.1.15,2013-10-08 01:50:00,
2013-10-07 20:56:00,53.0,43.1,30.08,WNW,300,0.0,0.0,69,0.00,,,0.00,Wunderground v.1.15,2013-10-08 01:56:00,
2013-10-07 21:02:00,52.8,42.9,30.08,WNW,300,0.0,0.0,69,0.00,,,0.00,Wunderground v.1.15,2013-10-08 02:02:00,
2013-10-07 21:08:00,52.6,43.1,30.08,WNW,300,0.0,0.0,70,0.00,,,0.00,Wunderground v.1.15,2013-10-08 02:08:00,
2013-10-07 21:14:00,52.4,42.9,30.08,WNW,300,0.0,0.0,70,0.00,,,0.00,Wunderground v.1.15,2013-10-08 02:14:00,
2013-10-07 21:20:00,52.2,42.7,30.08,WNW,300,0.0,0.0,70,0.00,,,0.00,Wunderground v.1.15,2013-10-08 02:20:00,
2013-10-07 21:26:00,52.0,42.5,30.08,WNW,300,0.0,0.0,70,0.00,,,0.00,Wunderground v.1.15,2013-10-08 02:26:00,
2013-10-07 21:32:00,51.8,42.3,30.08,WNW,300,0.0,0.0,70,0.00,,,0.00,Wunderground v.1.15,2013-10-08 02:32:00,
2013-10-07 21:38:00,51.7,42.6,30.09,WNW,300,0.0,0.0,71,0.00,,,0.00,Wunderground v.1.15,2013-10-08 02:38:00,
2013-10-07 21:44:00,51.5,42.4,30.09,WNW,300,0.0,0.0,71,0.00,,,0.00,Wunderground v.1.15,2013-10-08 02:44:00,
2013-10-07 21:50:00,51.4,42.3,30.09,WNW,300,0.0,0.0,71,0.00,,,0.00,Wunderground v.1.15,2013-10-08 02:50:00,
2013-10-07 21:56:00,51.2,42.1,30.09,WNW,300,0.0,0.0,71,0.00,,,0.00,Wunderground v.1.15,2013-10-08 02:56:00,
2013-10-07 22:02:00,51.1,42.0,30.09,WNW,300,0.0,0.0,71,0.00,,,0.00,Wunderground v.1.15,2013-10-08 03:02:00,
2013-10-07 22:08:00,51.0,41.9,30.09,WNW,300,0.0,0.0,71,0.00,,,0.00,Wunderground v.1.15,2013-10-08 03:08:00,
2013-10-07 22:14:00,50.8,42.1,30.09,WNW,300,0.0,0.0,72,0.00,,,0.00,Wunderground v.1.15,2013-10-08 03:14:00,
2013-10-07 22:20:00,50.6,41.9,30.09,WNW,300,0.0,0.0,72,0.00,,,0.00,Wunderground v.1.15,2013-10-08 03:20:00,
2013-10-07 22:26:00,50.5,41.8,30.10,WNW,300,0.0,0.0,72,0.00,,,0.00,Wunderground v.1.15,2013-10-08 03:26:00,
2013-10-07 22:32:00,50.3,41.6,30.10,WNW,300,0.0,0.0,72,0.00,,,0.00,Wunderground v.1.15,2013-10-08 03:32:00,
2013-10-07 22:38:00,50.3,41.6,30.10,WNW,300,0.0,0.0,72,0.00,,,0.00,Wunderground v.1.15,2013-10-08 03:38:00,
2013-10-07 22:44:00,50.2,41.9,30.10,WNW,300,0.0,0.0,73,0.00,,,0.00,Wunderground v.1.15,2013-10-08 03:44:00,
2013-10-07 22:50:00,50.1,41.8,30.10,WNW,300,0.0,0.0,73,0.00,,,0.00,Wunderground v.1.15,2013-10-08 03:50:00,
2013-10-07 22:56:00,49.9,41.6,30.10,WNW,300,0.0,0.0,73,0.00,,,0.00,Wunderground v.1.15,2013-10-08 03:56:00,
2013-10-07 23:02:00,49.8,41.5,30.10,WNW,300,0.0,0.0,73,0.00,,,0.00,Wunderground v.1.15,2013-10-08 04:02:00,
2013-10-07 23:06:00,49.7,41.4,30.10,WNW,300,0.0,0.0,73,0.00,,,0.00,Wunderground v.1.15,2013-10-08 04:06:00,
2013-10-07 23:08:00,49.7,41.4,30.10,WNW,300,0.0,0.0,73,0.00,,,0.00,Wunderground v.1.15,2013-10-08 04:08:00,
2013-10-07 23:12:00,49.6,41.3,30.10,WNW,300,0.0,0.0,73,0.00,,,0.00,Wunderground v.1.15,2013-10-08 04:12:00,
2013-10-07 23:14:00,49.5,41.2,30.10,WNW,300,0.0,0.0,73,0.00,,,0.00,Wunderground v.1.15,2013-10-08 04:14:00,
2013-10-07 23:16:00,49.5,41.2,30.10,WNW,300,0.0,0.0,73,0.00,,,0.00,Wunderground v.1.15,2013-10-08 04:16:00,
2013-10-07 23:22:00,49.4,41.5,30.10,WNW,300,0.0,0.0,74,0.00,,,0.00,Wunderground v.1.15,2013-10-08 04:22:00,
2013-10-07 23:28:00,49.3,41.4,30.10,WNW,300,0.0,0.0,74,0.00,,,0.00,Wunderground v.1.15,2013-10-08 04:28:00,
2013-10-07 23:34:00,49.3,41.4,30.10,WNW,300,0.0,0.0,74,0.00,,,0.00,Wunderground v.1.15,2013-10-08 04:34:00,
2013-10-07 23:40:00,49.3,41.4,30.10,WNW,300,0.0,0.0,74,0.00,,,0.00,Wunderground v.1.15,2013-10-08 04:40:00,
2013-10-07 23:46:00,49.1,41.2,30.10,WNW,300,0.0,0.0,74,0.00,,,0.00,Wunderground v.1.15,2013-10-08 04:46:00,
2013-10-07 23:52:00,49.0,41.1,30.10,WNW,300,0.0,0.0,74,0.00,,,0.00,Wunderground v.1.15,2013-10-08 04:52:00,
2013-10-07 23:58:00,48.9,41.3,30.10,WNW,300,0.0,0.0,75,0.00,,,0.00,Wunderground v.1.15,2013-10-08 04:58:00,